EW8281 Weather Reports


time (UTC)temp
F
wind
direction
speed
knots
gust
knots
rain 1hr
in
rain 24hr
in
rain mn
in
humidity
%
barometer
mb
20260503054505 40 343 0.0 0.0 0.00 0.00 0.00 84 1015.3
20260503053009 39 343 0.0 0.0 0.00 0.00 0.00 85 1015.2
20260503051503 40 343 0.0 0.0 0.00 0.00 0.00 83 1015.2
20260503050101 40 343 0.0 0.0 0.00 0.00 0.00 81 1015.1
20260503044602 41 343 0.0 0.0 0.00 0.00 0.00 82 1015.0
20260503043056 41 343 0.0 0.0 0.00 0.00 0.00 80 1014.9
20260503041557 42 343 0.0 0.0 0.00 0.00 0.00 81 1014.7
20260503040051 43 343 0.0 0.0 0.00 0.00 0.00 81 1014.7
20260503034606 43 343 0.0 0.0 0.00 0.00 0.00 78 1014.5
20260503033056 43 343 0.0 0.0 0.00 0.00 0.00 76 1014.5
20260503031545 44 343 0.0 0.0 0.00 0.00 0.00 76 1014.3
20260503030041 45 343 0.0 0.0 0.00 0.00 0.00 76 1014.1
20260503024538 46 343 0.0 0.0 0.00 0.00 0.00 74 1014.2
20260503023035 46 343 0.0 0.0 0.00 0.00 0.00 73 1014.1
20260503021532 47 343 0.0 0.0 0.00 0.00 0.00 71 1013.8
20260503020030 48 343 0.0 0.0 0.00 0.00 0.00 72 1013.8
20260503014528 49 343 0.0 0.0 0.00 0.00 0.00 73 1013.6
20260503013033 49 346 0.0 0.9 0.00 0.00 0.00 71 1013.4
20260503011522 51 346 0.0 0.0 0.00 0.00 0.00 70 1013.0
20260503010022 52 344 0.0 3.5 0.00 0.00 0.00 66 1012.7
20260503004521 53 272 0.0 0.9 0.00 0.00 0.00 66 1012.5
20260503003022 54 272 0.0 1.7 0.00 0.00 0.00 63 1012.3
20260503001520 55 49 0.9 3.5 0.00 0.00 0.00 58 1012.0
20260503000020 55 340 0.0 0.0 0.00 0.00 0.00 61 1011.9
20260502234519 56 340 0.0 3.5 0.00 0.00 0.00 58 1011.8
20260502233020 56 344 0.9 3.5 0.00 0.00 0.00 60 1011.5
20260502231519 56 128 0.0 0.0 0.00 0.00 0.00 64 1011.3
20260502230023 57 128 0.0 0.0 0.00 0.00 0.00 59 1011.1
20260502224517 57 128 0.0 0.0 0.00 0.00 0.00 58 1011.1
20260502223017 58 128 0.0 0.0 0.00 0.00 0.00 57 1010.9
20260502221516 59 165 1.7 4.3 0.00 0.00 0.00 48 1010.5
20260502220015 58 150 0.9 3.5 0.00 0.00 0.00 47 1010.4
20260502214519 59 41 0.0 5.2 0.00 0.00 0.00 50 1010.2
20260502213014 59 148 0.9 6.1 0.00 0.00 0.00 50 1010.1
20260502211524 59 81 0.0 5.2 0.00 0.00 0.00 48 1010.1
20260502210025 60 13 0.9 7.8 0.00 0.00 0.00 48 1010.0
20260502204511 60 149 1.7 5.2 0.00 0.00 0.00 47 1010.1
20260502203008 59 106 0.0 5.2 0.00 0.00 0.00 49 1010.2
20260502201511 58 88 0.9 6.1 0.00 0.00 0.00 50 1010.4
20260502200002 58 167 0.0 7.0 0.00 0.00 0.00 50 1010.7
20260502194501 58 360 0.9 7.0 0.00 0.00 0.00 50 1011.1
20260502193122 58 38 0.9 2.6 0.00 0.00 0.00 53 1011.3
20260502191559 58 360 0.9 6.1 0.00 0.00 0.00 49 1011.3
20260502190056 56 349 0.0 3.5 0.00 0.00 0.00 50 1011.4
20260502184553 55 323 0.9 7.0 0.00 0.00 0.00 53 1011.7
20260502183056 54 30 0.9 5.2 0.00 0.00 0.00 53 1011.9
20260502181550 54 340 0.9 2.6 0.00 0.00 0.00 53 1012.0
20260502163045 53 349 0.9 5.2 0.00 0.00 0.00 53 1013.4
20260502161549 52 5 0.9 4.3 0.00 0.00 0.00 53 1013.3
20260502151543 52 24 0.9 8.7 0.00 0.00 0.00 54 1013.6
20260502123023 52 40 0.9 4.3 0.00 0.00 0.00 67 1012.2
20260502121520 52 351 0.9 6.1 0.00 0.00 0.00 66 1012.3
20260502114528 52 13 0.9 7.8 0.00 0.00 0.00 67 1012.3
20260502113020 52 360 0.9 5.2 0.00 0.00 0.00 70 1012.2
20260502111515 52 5 1.7 4.3 0.00 0.00 0.00 73 1012.2
20260502110018 52 31 0.0 3.5 0.00 0.00 0.00 74 1012.2
20260502104519 52 34 0.0 4.3 0.00 0.00 0.00 73 1012.0
20260502103013 52 45 0.0 3.5 0.00 0.00 0.00 73 1012.0
20260502101512 52 44 0.0 4.3 0.00 0.00 0.00 74 1012.0
20260502091507 52 31 0.0 1.7 0.00 0.00 0.00 80 1012.3
20260502080105 51 51 0.0 0.0 0.00 0.00 0.00 91 1011.4
20260502070107 51 51 0.0 0.0 0.00 0.00 0.00 90 1011.0
20260502064620 51 51 0.0 0.0 0.00 0.00 0.00 89 1011.2